Lid_Strength_Index
2 2 2 2 2 3 3 4 5 6 7 13 13 12 13 12 13 12 12 10 8 8 7 8 8 8 8 8 7 7 8 8 8 8 8 8 7 7
2 3 3 2 2 2 3 4 5 5 6 10 11 13 12 12 12 12 12 11 9 8 8 8 8 8 8 8 7 8 8 8 8 9 8 8 8 7
3 3 3 3 3 3 5 5 6 6 7 10 12 12 12 13 13 12 13 12 12 9 8 9 9 9 8 8 8 8 8 9 9 9 9 9 8 8
3 4 4 4 4 4 6 7 7 7 7 8 14 14 13 12 12 13 13 13 13 11 9 9 9 9 8 8 8 8 9 9 10 10 10 9 9 8
4 4 4 6 6 7 7 7 8 10 11 12 14 14 14 13 14 14 14 14 13 12 10 10 9 9 9 8 8 8 9 9 10 10 10 10 10 9
6 6 7 7 7 7 8 8 9 11 12 14 14 14 14 14 14 15 15 15 15 14 12 11 10 10 9 9 9 9 9 9 10 10 10 10 10 10
8 8 7 8 9 8 8 9 10 12 13 13 14 14 15 15 15 14 15 15 15 15 14 14 13 14 12 9 10 10 9 9 9 10 10 10 11 10
9 9 9 11 10 9 9 8 9 11 12 13 14 14 15 14 14 15 15 16 16 14 15 15 14 14 14 13 11 10 10 9 9 10 10 10 11 11
10 11 11 11 12 11 10 9 9 9 10 11 13 13 14 14 14 15 15 15 15 16 16 16 16 15 14 14 11 10 10 9 9 9 10 10 11 11
11 11 11 11 11 12 12 12 12 11 11 12 12 13 12 13 13 13 14 14 16 17 16 17 17 17 17 15 11 10 9 9 9 9 9 10 11 11
12 12 12 12 11 10 12 12 13 13 10 10 11 10 11 11 12 14 15 16 17 17 16 17 18 18 19 18 16 10 9 9 9 9 9 10 11 11
15 13 12 11 10 10 12 12 13 13 12 13 12 12 11 11 10 12 14 15 19 21 16 17 19 18 19 19 18 18 15 10 9 9 9 10 11 15
13 14 14 11 10 10 10 12 12 12 11 12 12 13 13 13 12 12 13 13 19 20 16 16 19 19 21 20 19 18 17 16 15 12 9 10 10 12
12 13 14 11 11 10 11 10 10 11 12 13 13 13 13 13 12 12 14 14 15 15 15 14 18 18 20 24 20 18 17 18 17 17 16 13 11 11
12 12 11 11 11 11 10 10 12 13 13 14 14 13 13 12 15 14 12 14 15 16 15 14 15 16 16 19 18 18 17 17 16 16 16 16 16 16
12 12 12 11 11 12 15 13 12 12 13 13 14 17 17 18 16 15 13 13 14 14 13 14 14 14 15 16 15 15 16 16 16 16 16 16 16 15
13 13 14 14 14 14 15 14 14 13 13 13 13 14 14 15 14 15 14 13 14 14 15 13 13 13 13 13 15 15 14 16 14 15 16 17 16 15
13 14 14 14 15 15 15 14 14 13 13 13 12 13 13 13 14 15 14 14 14 14 14 13 14 14 14 13 11 13 13 13 13 14 15 16 15 16
14 14 14 14 14 15 15 15 14 14 18 14 12 12 12 12 13 13 13 13 14 13 13 12 13 14 15 16 14 10 12 12 14 15 15 15 15 16
21 19 17 18 17 17 16 15 15 18 18 13 13 12 12 12 12 13 12 13 13 13 13 12 12 13 14 13 12 13 9 12 14 15 16 16 16 13
24 24 25 21 19 18 18 17 16 14 13 12 12 12 12 12 12 12 12 12 12 12 12 12 11 11 10 13 14 14 15 11 10 13 16 16 18 18
31 30 29 29 26 24 22 22 22 22 19 18 17 16 14 13 12 12 11 12 12 12 12 12 14 12 12 14 13 13 16 16 10 9 11 12 16 18
33 32 31 31 31 29 28 27 27 25 24 21 19 18 17 17 15 15 14 13 14 13 14 13 17 15 13 13 13 12 16 16 15 14 12 9 10 11